Location: Lanoux
(43.1180°N, 1.4255°E)
Time: 03:33:51
(UTC+00:00)

Tiangong - Visible Passes

Search period start: 18 February 2026 00:00
Search period end: 28 February 2026 00:00
Orbit: 385 x 391 km, 41.5° (Epoch: 17 February)

Date Brightness Start Highest point End Pass type
(mag) Time Alt. Az. Time Alt. Az. Time Alt. Az.
18 Feb -1.4 18:50:42 10° W 18:53:45 45° SSW 18:54:51 31° SE visible
19 Feb -1.6 17:52:07 10° W 17:55:15 56° S 17:58:23 10° ESE visible
19 Feb 0.0 19:29:18 10° WSW 19:31:34 21° SSW 19:31:34 21° SSW visible
20 Feb -0.6 18:30:29 10° W 18:33:22 31° SSW 18:36:01 11° SE visible
21 Feb 0.6 19:09:34 10° WSW 19:11:13 13° SSW 19:12:51 10° S visible
22 Feb 0.3 18:10:15 10° WSW 18:12:42 21° SSW 18:15:10 10° SSE visible
